This is the latest recevied weather packets stored in our database for station/object NC4J. If no packets are shown the sender has not sent any weather packets the latest 10 day(s).
| Time | Temp. | Humidity | Pressure | Rain* | Wind** | Luminosity | Snow |
|---|---|---|---|---|---|---|---|
| 1777672066 | 17.78° C | 47% | 1012.4 hPa | 0 mm | - | 77 W/m² | - |
| 1777671762 | 17.78° C | 49% | 1012.6 hPa | 0 mm | - | 79 W/m² | - |
| 1777671458 | 17.78° C | 47% | 1012.4 hPa | 0 mm | - | 113 W/m² | - |
| 1777671155 | 17.78° C | 46% | 1012.4 hPa | 0 mm | - | 101 W/m² | - |
| 1777670851 | 17.78° C | 50% | 1012.3 hPa | 0 mm | - | 79 W/m² | - |
| 1777670547 | 17.78° C | 47% | 1012.4 hPa | 0 mm | - | 78 W/m² | - |
| 1777670245 | 18.33° C | 49% | 1012.5 hPa | 0 mm | - | 93 W/m² | - |
| 1777669941 | 18.33° C | 47% | 1012.4 hPa | 0 mm | - | 94 W/m² | - |
| 1777669639 | 18.33° C | 46% | 1012.6 hPa | 0 mm | - | 101 W/m² | - |
| 1777669335 | 18.33° C | 45% | 1012.6 hPa | 0 mm | - | 85 W/m² | - |
| 1777669032 | 17.78° C | 45% | 1012.6 hPa | 0 mm | - | 92 W/m² | - |
| 1777668729 | 17.78° C | 45% | 1012.6 hPa | 0 mm | - | 90 W/m² | - |
| 1777668426 | 17.78° C | 46% | 1012.5 hPa | 0 mm | - | 108 W/m² | - |
| 1777668122 | 17.78° C | 45% | 1012.9 hPa | 0 mm | - | 97 W/m² | - |
| 1777667818 | 17.78° C | 46% | 1012.8 hPa | 0 mm | - | 106 W/m² | - |
| 1777667516 | 17.22° C | 45% | 1012.8 hPa | 0 mm | - | 105 W/m² | - |
| 1777667213 | 17.78° C | 47% | 1012.9 hPa | 0 mm | - | 108 W/m² | - |
| 1777666910 | 17.78° C | 48% | 1012.8 hPa | 0 mm | - | 95 W/m² | - |
| 1777666607 | 17.78° C | 45% | 1013.1 hPa | 0 mm | - | 183 W/m² | - |
| 1777666303 | 17.78° C | 49% | 1013.2 hPa | 0 mm | - | 119 W/m² | - |
| 1777666000 | 17.22° C | 46% | 1013.4 hPa | 0 mm | - | 211 W/m² | - |
| 1777665698 | 17.22° C | 48% | 1013.6 hPa | 0 mm | - | 216 W/m² | - |
| 1777665395 | 16.67° C | 49% | 1013.5 hPa | 0 mm | - | 137 W/m² | - |
| 1777665091 | 16.67° C | 48% | 1013.5 hPa | 0 mm | - | 225 W/m² | - |
| 1777664786 | 16.67° C | 47% | 1013.5 hPa | 0 mm | - | 102 W/m² | - |
* Rain latest hour (hover to see other rain measurements)
** Current wind speed in m/s (hover to see current wind gust speed)